New York, NY

8:19 AM EDT on August 22, 2017 (GMT -0400)
La Guardia

Weather History for KLGA - June, 2013

Change the Weather History Date:

Monday, June 17, 2013

  Actual Average Record
Temperature  
Mean Temperature 79 °F 73 °F  
Max Temperature 87 °F 81 °F 96 °F (1957)
Min Temperature 71 °F 65 °F 53 °F (1950)
Degree Days  
Heating Degree Days 0 0  
Month to date heating degree days 4 15  
Since 1 June heating degree days 4 15  
Since 1 July heating degree days 4439 4663  
Cooling Degree Days 14 8  
Month to date cooling degree days 107 105  
Year to date cooling degree days 195 171  
Since 1 June cooling degree days 107 105  
Growing Degree Days 29 (Base 50)    
Moisture  
Dew Point 62 °F    
Average Humidity 57    
Maximum Humidity 73    
Minimum Humidity 40    
Precipitation  
Precipitation T in 0.13 in 2.30 in (2011)
Month to date precipitation 7.81 2.37  
Year to date precipitation 22.22 20.06  
Snow  
Snow 0.00 in 0.00 in T in (2011)
Month to date snowfall 0.0 0.0  
Since 1 July snowfall 22.2 26.9  
Snow Depth 0.00 in    
Sea Level Pressure  
Sea Level Pressure 29.87 in    
Wind  
Wind Speed 8 mph (SSW)    
Max Wind Speed 21 mph    
Max Gust Speed 28 mph    
Visibility 10 miles    
Events Rain    
T = Trace of Precipitation, MM = Missing Value Source: NWS Daily Summary

Daily Weather History Graph

Daily Weather History Graph

Search for Another Location

Airport or City:

Trip Planner

Search our weather history database for the weather conditions in past years. The results will help you decide how hot, cold, wet, or windy it might be!

Date:

Astronomy

Jun. 17, 2013 Rise Set
Actual Time 5:23 AM EDT 8:29 PM EDT
Civil Twilight 4:50 AM EDT 9:02 PM EDT
Nautical Twilight 4:07 AM EDT 9:45 PM EDT
Astronomical Twilight 3:17 AM EDT 10:36 PM EDT
Moon 2:03 PM EDT (6/17) 1:00 AM EDT (6/17)
Length of Visible Light 16h 12m
Length of Day
15h 05m
First Quarter, 60% of the Moon is Illuminated
Jun 17
First Quarter
Jun 23
Full
Jun 30
Last Quarter
Jul 8
New
Jul 15
First Quarter

Hourly Weather History & Observations

Time (EDT) Temp. Heat Index Dew Point Humidity Pressure Visibility Wind Dir Wind Speed Gust Speed Precip Events Conditions
12:51 AM 75.0 °F - 63.0 °F 66% 29.85 in 10.0 mi West 8.1 mph - N/A   Scattered Clouds
1:51 AM 73.0 °F - 63.0 °F 71% 29.86 in 10.0 mi Calm Calm - N/A   Mostly Cloudy
2:51 AM 73.0 °F - 63.0 °F 71% 29.86 in 10.0 mi South 4.6 mph - N/A   Mostly Cloudy
3:51 AM 72.0 °F - 63.0 °F 73% 29.87 in 10.0 mi SSW 4.6 mph - N/A   Mostly Cloudy
4:51 AM 71.1 °F - 63.0 °F 75% 29.88 in 10.0 mi South 8.1 mph - N/A   Mostly Cloudy
5:51 AM 71.1 °F - 63.0 °F 75% 29.89 in 10.0 mi SW 6.9 mph - N/A   Mostly Cloudy
6:51 AM 72.0 °F - 63.0 °F 73% 29.90 in 10.0 mi SW 6.9 mph - N/A   Mostly Cloudy
7:51 AM 73.0 °F - 63.0 °F 71% 29.91 in 10.0 mi SW 9.2 mph - N/A   Mostly Cloudy
8:51 AM 75.9 °F - 62.1 °F 62% 29.91 in 10.0 mi WSW 10.4 mph - N/A   Mostly Cloudy
9:51 AM 77.0 °F - 63.0 °F 62% 29.90 in 10.0 mi SSW 9.2 mph - N/A   Scattered Clouds
10:51 AM 81.0 °F 81.7 °F 61.0 °F 50% 29.88 in 10.0 mi Variable 5.8 mph - N/A   Scattered Clouds
11:51 AM 82.9 °F 83.3 °F 61.0 °F 47% 29.88 in 10.0 mi SSW 15.0 mph 19.6 mph N/A   Scattered Clouds
12:51 PM 84.0 °F 84.4 °F 61.0 °F 46% 29.87 in 10.0 mi SSW 11.5 mph - N/A   Scattered Clouds
1:51 PM 84.9 °F 85.0 °F 61.0 °F 44% 29.85 in 10.0 mi SSW 11.5 mph - N/A   Scattered Clouds
2:51 PM 86.0 °F 85.7 °F 60.1 °F 41% 29.84 in 10.0 mi SW 11.5 mph 19.6 mph N/A   Mostly Cloudy
3:51 PM 77.0 °F - 62.1 °F 60% 29.85 in 10.0 mi SW 13.8 mph 25.3 mph 0.00 in Rain Light Rain
4:51 PM 82.9 °F 83.2 °F 60.1 °F 46% 29.84 in 10.0 mi SSW 8.1 mph - 0.00 in   Mostly Cloudy
5:51 PM 84.0 °F 83.8 °F 59.0 °F 43% 29.84 in 10.0 mi SW 12.7 mph 19.6 mph N/A   Scattered Clouds
6:51 PM 84.9 °F 83.9 °F 57.0 °F 38% 29.84 in 10.0 mi SW 10.4 mph - N/A   Scattered Clouds
7:51 PM 79.0 °F - 60.1 °F 52% 29.86 in 10.0 mi SSW 12.7 mph - N/A   Mostly Cloudy
8:51 PM 80.1 °F 80.9 °F 60.1 °F 50% 29.87 in 10.0 mi South 8.1 mph - N/A   Scattered Clouds
9:51 PM 78.1 °F - 61.0 °F 56% 29.89 in 10.0 mi Calm Calm - N/A   Mostly Cloudy
10:51 PM 75.9 °F - 63.0 °F 64% 29.90 in 10.0 mi South 6.9 mph - N/A   Partly Cloudy
11:51 PM 75.0 °F - 64.0 °F 69% 29.89 in 10.0 mi South 5.8 mph - N/A   Partly Cloudy